Location: ????????
(55.6189°N, 38.3031°E)
Time: 06:34:13
(UTC+00:00)

SL-16 R/B - Pass Details

Date: 22 February 2020
Orbit: 843 x 847 km, 71.0° (Epoch: 07 April)

Event Time Altitude Azimuth Distance (km) Brightness Sun altitude
Exits shadow 01:53:14 57° 248° (WSW) 994 2.2 -23.6°
Maximum altitude 01:54:18 72° 307° (NW) 893 2.1 -23.4°
Drops below altitude 10° 02:00:00 10° 32° (NNE) 2,477 5.2 -22.6°
Sets 02:02:28 0° 35° (NE) 3,415 6.1 -22.3°
